Погода в Нижнем Бестяхе

Россия / Республика Саха (Якутия)     61°57′32″N   129°54′41″E
темп.,
°C
ветер,
м/с
пор.,
м/с
влажн.,
%
обл.,
%
осадки,
мм/ч
давл.,
гПа
погр.,
м
27 февраля, сб
сб2700:00−33всв229846 0.0 103219
03:00−33всв129953 0.0 103119
06:00−33всв229882 0.0 103121
09:00−31всв239782 0.0 102999
12:00−25всв249391 0.0 1028315
15:00−22всв469293 0.0 1023414
18:00−25всв3694100 0.0 1023152
21:00−26св3595100 0.0 1020122
28 февраля, вс
вс2800:00−27ссв2396100 0.0 101886
03:00−28с2395100 0.0 101676
06:00−29с3594100 0.0 1017129
09:00−28зсз2493100 0.0 1017159
12:00−25зсз3589100 0.0 1019387
15:00−23зсз4789100 0.0 1020675
18:00−24з4797100 0.2 1023570
21:00−25зсз3797100 0.4 1024550
1 марта, пн
пн100:00−26з3797100 0.2 1025471
03:00−27з3895100 0.3 1025482
06:00−28з3894100 0.1 1025436
09:00−27з3792100 0.1 1026633
12:00−26зсз4586100 0.1 1026924
15:00−25зсз4685100 0.1 1026971
18:00−27з2394100 0.1 102791
21:00−30з2395100 0.1 102758
2 марта, вт
вт200:00−32з2295100 0.0 102719
03:00−34з1296100 0.0 102619
06:00−35зюз1298100 0.0 102719
09:00−33зюз119698 0.0 102769
12:00−28з238896 0.0 1026425
15:00−27з238498 0.0 1026647
18:00−30зсз1193100 0.0 102619
21:00−30зсз1192100 0.0 102619
3 марта, ср
ср300:00−31зсз1193100 0.0 102619
03:00−31зсз1195100 0.0 102519
06:00−30зсз1198100 0.1 102519
09:00−30зсз1197100 0.1 1024107
12:00−27сз1189100 0.1 1022459
15:00−27сз2386100 0.1 1021635
18:00−29сз2296100 0.1 101921
21:00−30зсз2496100 0.1 101999